Weather in Valdgeym

Russia / Jewish Autonomous Oblast     48°41′36″N   132°58′24″E
temp.,
°C
wind,
m/s
gust,
m/s
humid.,
%
clouds,
%
prec.,
mm/h
press.,
hPa
HPBL,
m
25 october, mon
mon2501:00+6w22630 0.0 101815
04:00+4w22705 0.0 101813
07:00+4wsw22730 0.0 101814
10:00+7wsw24585 0.0 1018202
13:00+12sw46390 0.0 1017693
16:00+13sw46362 0.0 1015967
19:00+9ssw23492 0.0 101518
22:00+7wsw2258100 0.0 101613
26 october, tue
tue2601:00+6wsw226899 0.0 101612
04:00+4w11765 0.0 101510
07:00+3nnw11833 0.0 101510
10:00+6e1171100 0.0 1015124
13:00+10sse1258100 0.0 1014518
16:00+12sw245492 0.1 1012974
19:00+9ne246898 0.3 101190
22:00+8ne2279100 1.1 101046
27 october, wed
wed2701:00+7n2286100 0.1 100939
04:00+6n2289100 0.1 100831
07:00+6nnw2291100 0.1 100829
10:00+7nw12825 0.1 1008260
13:00+10wsw235937 0.0 10071097
16:00+11wnw335089 0.2 10071275
19:00+8nne246999 0.2 100997
22:00+6nnw347796 0.2 101078
28 october, thu
thu2801:00+4nw36785 0.0 1011114
04:00+3nw35795 0.0 1013101
07:00+2nw348233 0.0 101668
10:00+6nnw247086 0.0 1018229
13:00+10nnw344927 0.0 10191331
16:00+11n354619 0.0 10191486
19:00+7n35632 0.0 102285
22:00+5nw22712 0.0 102324
29 october, fri
fri2901:00+4nw22802 0.0 102415
04:00+2nw22810 0.0 102516
07:00+2w11820 0.0 102610
10:00+4wsw12650 0.0 1027186
13:00+9wsw34440 0.0 1026643
16:00+10sw45400 0.0 1024732
19:00+7sw22520 0.0 102521
22:00+5wsw225729 0.0 102515